Location: Baia Mare
(47.6567°N, 23.5850°E)
Time: 15:43:37

ISS - Pass Details

Date: 07 March 2018
Orbit: 403 x 406 km, 51.6° (Epoch: 22 March)

Event Time Altitude Azimuth Distance (km) Brightness Sun altitude
Exits shadow 04:27:00 29° 71° (ENE) 771 -1.8 -25.4°
Drops below altitude 10° 04:28:47 10° 68° (ENE) 1,468 0.1 -25.1°
Sets 04:30:52 0° 67° (ENE) 2,329 1.4 -24.8°
